Regional Weather Roundup
Issued by NWS Cleveland, OH

Home | Current Version | Previous Version | Graphics & Text | Print | Product List | Glossary On
Versions: 1 2 3 4 5 6 7 8 9 10 11 12 13 14 15 16 17 18 19 20 21 22 23 24 25 26 27 28 29 30 31 32 33 34 35 36 37 38 39 40 41 42 43 44 45 46 47 48 49 50
000
ASUS41 KCLE 010202
RWRCLE
OHIO REGIONAL WEATHER ROUNDUP
NATIONAL WEATHER SERVICE CLEVELAND, OH
1000 PM EDT WED AUG 31 2016

NOTE: "FAIR" INDICATES FEW OR NO CLOUDS BELOW 12,000 FEET WITH NO
SIGNIFICANT WEATHER AND/OR OBSTRUCTIONS TO VISIBILITY.

OHZ001>008-015>018-024>027-034-035-043-044-010300-
   NORTHWEST OHIO

CITY           SKY/WX    TMP DP  RH WIND       PRES   REMARKS
DEFIANCE       PTCLDY    69  61  75 N6        30.03R
FINDLAY        CLOUDY    74  61  63 NE12      30.00R
TOLEDO EXPRESS CLOUDY    68  60  75 N8        30.02R
TOLEDO EXEC    CLOUDY    74  61  63 NE6       30.03R
LIMA           MOCLDY    71  68  90 N8        30.01R
$$

OHZ009>014-019>023-028>033-038-089-010300-
   NORTHEAST OHIO

CITY           SKY/WX    TMP DP  RH WIND       PRES   REMARKS
CLE-HOPKINS    CLOUDY    74  58  57 N15       30.02R
CLE-LAKEFRONT  CLOUDY    74  60  61 N16G22    29.98R
CUY CO. ARPT   MOCLDY    73  61  64 N12       30.00R
LORAIN-ELYRIA  MOCLDY    70  58  65 NE9       30.01R
ASHTABULA      CLOUDY    68  62  81 NW5       29.98S
AKRON-CANTON   LGT RAIN  70  66  87 N5        29.99R
WOOSTER        PTCLDY    69  65  86 N7        30.00R
MANSFIELD      CLOUDY    71  65  81 N9        30.01R
YOUNGSTOWN     CLOUDY    70  67  90 NW3       29.98S
$$

OHZ042-051>053-060>062-070>072-077>081-010300-
  SOUTHWEST OHIO

CITY           SKY/WX    TMP DP  RH WIND       PRES   REMARKS
CINC-COVINGTON CLOUDY    74  70  87 N6        29.98R
CINC-LUNKEN    CLOUDY    72  71  97 NE3       29.97R
HAMILTON       CLEAR     70  69  97 CALM      29.99R FOG
DAYTON         CLOUDY    73  68  84 N7        30.00R
WRIGHT-PAT AFB CLOUDY    76  69  79 VRB3      29.98R
DAYTON GENERAL CLEAR     72  70  93 CALM      29.98R
WILMINGTON     PTCLDY    73  71  93 NW6       29.98R
$$

OHZ036-037-039>041-045>050-054>059-063>069-073>076-082>088-010300-
  CENTRAL AND SOUTHEAST OHIO

CITY           SKY/WX    TMP DP  RH WIND       PRES   REMARKS
COLUMBUS       CLOUDY    74  71  91 VRB3      29.96R
OSU AIRPORT    MOCLDY    73  70  90 N7        29.97R
BOLTON FIELD   MOCLDY    72  71  98 NW5       29.97R
RICKENBACK AFB PTCLDY    73  71  94 CALM      29.95S
NEWARK         CLOUDY    71  70  96 NE3       29.96R
MARION         PTCLDY    72  67  84 NE10      30.00R
LANCASTER      CLOUDY    72  71  97 CALM      29.96S
ZANESVILLE     CLOUDY    71  68  90 CALM      29.96S
NEW PHILLY     CLOUDY    73  69  87 CALM      29.97R FOG
$$



USA.gov is the U.S. government's official web portal to all federal, state and local government web resources and services.